Vorticity
4 4 4 3 3 2 1 3 3 4 5 6 5 5 4 5 4 4 4 4 4 4 5 5 5 7 5 5 6 6 6 6 6 6 5 4 4 4 5 5 5 4 3
1 2 5 4 2 2 1 2 3 3 3 5 4 5 5 5 3 4 4 3 4 4 5 6 7 6 5 6 6 6 6 6 6 7 5 4 4 5 6 5 5 3 3
1 5 3 4 3 2 2 2 4 3 4 4 4 5 6 6 5 5 4 4 4 4 5 7 7 7 6 6 6 6 7 6 5 4 4 5 6 6 5 5 3 3 3
4 2 3 4 4 6 6 6 6 5 4 4 4 4 6 6 6 5 4 4 5 5 6 7 7 7 7 7 6 6 6 4 5 5 6 6 4 4 4 4 4 3 4
2 6 3 5 3 4 5 6 6 7 6 6 5 5 5 7 5 4 4 4 5 6 6 7 7 8 7 7 6 5 6 6 6 6 4 4 5 5 5 4 5 5 4
3 2 5 3 3 5 6 5 5 6 7 7 6 6 6 6 5 4 4 4 6 6 6 7 8 8 6 6 5 6 5 5 4 4 5 5 4 4 6 5 3 5 6
3 3 2 4 5 6 4 5 5 6 6 6 6 7 6 5 5 4 4 4 6 6 7 7 8 7 6 5 6 5 4 4 4 6 4 3 6 5 4 3 5 5 5
4 5 5 4 5 7 3 5 6 4 6 6 7 8 7 6 4 4 4 5 6 6 7 7 7 7 5 5 4 4 3 4 6 6 2 4 4 3 5 5 4 4 5
4 1 0 4 4 5 5 6 6 7 5 6 6 7 7 5 5 4 4 5 6 6 6 6 6 6 5 4 4 4 4 3 6 5 2 2 3 3 3 4 3 4 6
7 7 3 3 2 3 3 3 5 6 7 5 6 5 5 5 4 4 4 5 6 5 6 6 6 5 4 3 4 4 4 2 4 5 4 3 3 3 3 3 3 -1 6
5 -0 2 3 2 3 5 3 3 4 7 7 5 5 5 5 4 5 4 5 5 5 6 6 7 5 4 4 4 4 3 4 3 4 6 4 4 2 3 2 5 1 3
-2 -0 3 2 3 3 4 7 5 3 6 6 7 5 5 4 4 4 5 5 5 5 5 6 7 5 4 4 4 4 4 3 3 3 3 7 5 4 1 5 3 0 4
6 6 5 2 3 3 4 4 7 4 4 5 7 6 6 5 4 4 4 5 5 4 5 5 6 6 5 4 3 3 4 4 4 5 3 4 7 4 3 4 2 1 2
2 12 0 2 2 2 3 3 4 6 5 5 5 7 6 6 6 5 5 4 4 4 4 5 5 4 4 4 4 4 4 4 5 5 4 5 5 5 4 4 4 0 2
-6 -2 4 2 2 3 5 5 4 4 5 6 5 5 6 6 6 5 5 5 5 5 5 5 5 5 6 5 4 3 4 5 4 4 5 3 5 6 2 5 2 1 4
6 2 2 3 6 6 6 7 8 7 6 6 7 7 7 7 7 7 7 6 4 4 5 6 6 5 3 2 4 5 5 4 5 4 5 4 4 7 3 3 4 1 3
6 4 4 -1 4 3 4 6 6 9 9 8 6 7 8 8 7 6 5 6 6 6 5 4 4 5 5 4 4 4 5 5 4 5 4 4 5 5 2 4 4 1 5
0 6 11 7 3 4 5 8 9 5 7 5 8 5 5 5 7 6 4 5 5 4 4 4 4 5 4 4 5 6 5 4 4 5 4 6 5 3 4 2 5 3 4
1 -1 -1 -1 6 7 2 4 11 -5 3 -2 4 4 3 4 5 6 5 4 4 3 3 3 4 3 3 4 4 5 5 4 5 5 5 8 4 3 3 3 6 2 6
7 6 -0 -4 -9 9 3 3 9 6 4 9 1 5 2 3 3 4 5 5 4 4 3 2 2 3 2 2 4 5 5 5 4 6 7 6 1 2 1 2 7 2 4
4 8 5 2 3 4 21 -9 -6 14 6 9 3 3 3 2 1 3 3 4 5 6 6 7 6 6 2 3 3 3 4 7 7 7 7 3 4 1 5 -1 9 9 4
2 0 7 4 9 9 -10 5 3 21 -0 1 -4 3 6 3 3 5 4 8 6 7 12 -7 5 21 7 3 1 -2 -3 4 5 5 6 4 1 3 -1 8 7 8 6
5 4 3 6 7 2 5 9 11 8 3 6 9 3 4 6 13 6 3 4 4 3 10 18 3 7 20 23 20 23 30 -11 -5 -2 -1 3 2 -1 9 0 10 7 5
4 5 8 5 5 5 7 4 5 19 11 8 4 5 1 9 21 11 11 9 -1 5 -8 -6 1 1 23 33 24 21 23 21 13 9 22 19 6 15 18 9 10 8 5
6 9 7 6 3 3 4 5 3 0 5 7 4 12 6 0 -2 7 -3 9 9 11 27 11 16 -8 10 -11 -3 -7 27 -14 13 14 30 -4 12 3 15 5 13 2 3
6 7 7 5 7 7 6 7 4 7 5 4 11 5 6 9 9 3 7 8 29 7 10 7 1 0 2 9 17 -1 -2 22 1 19 15 12 -1 13 3 8 8 4 3
Height
5878 5880 5882 5885 5888 5889 5891 5892 5893 5894 5895 5896 5896 5897 5898 5898 5898 5897 5898 5898 5898 5898 5897 5896 5895 5895 5894 5894 5893 5892 5891 5890 5889 5888 5887 5886 5885 5884 5882 5881 5879 5877 5875
5874 5877 5881 5883 5886 5888 5889 5891 5893 5893 5894 5895 5895 5896 5897 5897 5898 5897 5897 5897 5897 5897 5897 5896 5895 5895 5894 5893 5893 5892 5891 5890 5889 5889 5887 5886 5885 5884 5882 5881 5879 5878 5875
5872 5875 5878 5882 5884 5886 5887 5889 5892 5892 5893 5894 5895 5895 5896 5896 5897 5897 5897 5897 5897 5897 5897 5896 5895 5894 5893 5892 5892 5892 5891 5891 5890 5889 5888 5887 5885 5884 5882 5881 5879 5878 5875
5868 5872 5875 5879 5882 5884 5886 5888 5890 5892 5892 5893 5894 5895 5895 5896 5896 5896 5896 5897 5897 5896 5896 5895 5895 5894 5893 5892 5892 5892 5891 5891 5890 5889 5888 5887 5885 5884 5882 5880 5879 5877 5875
5866 5870 5874 5876 5879 5882 5884 5887 5888 5890 5892 5892 5893 5894 5895 5895 5895 5896 5896 5896 5896 5896 5896 5895 5894 5894 5892 5892 5892 5891 5891 5890 5889 5888 5887 5886 5885 5883 5882 5880 5878 5876 5874
5863 5867 5869 5874 5877 5879 5882 5885 5887 5889 5890 5891 5892 5893 5894 5894 5895 5895 5896 5896 5896 5896 5895 5895 5894 5894 5892 5892 5892 5891 5890 5890 5889 5888 5887 5886 5885 5883 5881 5879 5878 5876 5873
5859 5863 5866 5871 5874 5876 5879 5883 5886 5887 5888 5889 5890 5891 5892 5894 5894 5895 5895 5895 5895 5895 5895 5894 5894 5893 5892 5892 5892 5891 5890 5890 5889 5887 5886 5885 5884 5882 5881 5879 5877 5874 5872
5855 5860 5864 5868 5871 5874 5878 5880 5883 5885 5886 5887 5888 5890 5891 5892 5893 5894 5894 5894 5894 5894 5894 5894 5893 5893 5892 5891 5892 5891 5890 5889 5888 5886 5885 5885 5883 5882 5880 5878 5876 5873 5871
5850 5856 5861 5864 5868 5872 5876 5877 5880 5882 5884 5886 5887 5888 5890 5891 5892 5892 5893 5893 5893 5893 5893 5893 5892 5893 5893 5892 5891 5891 5890 5889 5888 5886 5884 5884 5882 5881 5879 5877 5874 5872 5869
5845 5852 5858 5861 5865 5869 5873 5875 5878 5880 5882 5884 5885 5886 5888 5889 5890 5891 5892 5892 5892 5892 5892 5892 5892 5892 5891 5891 5889 5889 5889 5887 5887 5885 5883 5883 5881 5879 5877 5875 5873 5871 5868
5841 5848 5853 5858 5862 5866 5870 5872 5875 5878 5880 5881 5883 5884 5886 5887 5888 5889 5889 5890 5891 5891 5891 5891 5891 5890 5890 5889 5889 5887 5887 5886 5885 5884 5882 5881 5879 5877 5875 5873 5871 5868 5865
5837 5844 5850 5854 5858 5863 5866 5869 5872 5874 5877 5879 5880 5882 5883 5885 5886 5887 5887 5888 5889 5889 5889 5890 5890 5889 5889 5888 5888 5886 5886 5885 5884 5882 5881 5879 5878 5876 5873 5871 5869 5866 5863
5832 5840 5846 5851 5856 5860 5863 5866 5869 5871 5874 5876 5878 5879 5881 5882 5884 5885 5886 5886 5887 5887 5888 5888 5888 5888 5887 5887 5886 5885 5884 5884 5882 5881 5879 5877 5876 5874 5872 5870 5867 5864 5861
5829 5834 5841 5847 5852 5856 5859 5863 5866 5868 5871 5873 5875 5876 5878 5879 5881 5882 5883 5883 5884 5885 5886 5886 5885 5885 5885 5884 5884 5883 5882 5881 5880 5878 5877 5876 5874 5872 5870 5867 5864 5862 5858
5825 5832 5838 5842 5848 5852 5856 5859 5862 5865 5868 5870 5871 5873 5874 5876 5878 5879 5879 5880 5881 5882 5883 5883 5883 5882 5881 5881 5880 5880 5880 5878 5877 5876 5875 5873 5871 5869 5867 5864 5861 5858 5855
5820 5826 5832 5838 5842 5847 5851 5854 5858 5861 5864 5866 5867 5869 5871 5872 5874 5875 5876 5877 5877 5878 5879 5879 5879 5879 5878 5878 5877 5877 5876 5875 5873 5872 5871 5870 5868 5865 5863 5860 5857 5854 5851
5816 5822 5828 5832 5837 5841 5846 5850 5854 5856 5859 5861 5864 5866 5867 5869 5870 5871 5872 5873 5874 5873 5874 5875 5875 5875 5875 5874 5873 5873 5872 5871 5870 5868 5866 5865 5863 5861 5859 5857 5854 5850 5846
5809 5815 5820 5827 5832 5837 5841 5845 5850 5853 5854 5857 5860 5861 5863 5864 5866 5866 5867 5868 5869 5869 5869 5870 5870 5870 5870 5869 5869 5868 5868 5867 5865 5864 5862 5860 5858 5856 5854 5852 5849 5845 5842
5803 5809 5817 5822 5828 5833 5837 5841 5844 5848 5850 5851 5855 5857 5858 5859 5861 5862 5862 5863 5864 5864 5865 5864 5865 5865 5865 5864 5864 5863 5862 5860 5859 5858 5856 5854 5853 5850 5849 5847 5844 5840 5837
5797 5805 5810 5815 5821 5826 5829 5835 5839 5843 5846 5848 5849 5850 5853 5854 5855 5855 5856 5857 5858 5859 5859 5859 5860 5859 5858 5857 5857 5857 5856 5854 5853 5852 5850 5849 5847 5845 5843 5842 5839 5836 5833
5792 5799 5805 5811 5815 5820 5824 5828 5834 5837 5839 5841 5843 5845 5846 5847 5849 5850 5850 5850 5852 5853 5853 5852 5852 5852 5851 5850 5850 5850 5850 5848 5846 5845 5844 5842 5839 5838 5837 5836 5833 5829 5826
5786 5793 5798 5805 5810 5817 5821 5819 5824 5827 5829 5832 5836 5839 5841 5842 5844 5843 5843 5844 5846 5847 5846 5845 5843 5842 5843 5843 5842 5843 5843 5842 5839 5838 5836 5835 5833 5831 5830 5828 5826 5822 5819
5780 5786 5792 5797 5804 5811 5814 5817 5817 5819 5823 5827 5829 5831 5834 5836 5837 5838 5837 5837 5838 5839 5838 5837 5836 5834 5833 5833 5832 5832 5834 5834 5832 5830 5828 5827 5826 5824 5823 5820 5818 5815 5812
5774 5779 5785 5790 5796 5801 5806 5810 5810 5814 5816 5816 5821 5825 5825 5828 5829 5829 5830 5829 5829 5829 5829 5828 5827 5826 5825 5824 5825 5825 5824 5824 5823 5822 5818 5817 5818 5816 5815 5812 5811 5808 5804
5766 5774 5779 5784 5788 5793 5798 5802 5805 5807 5809 5810 5816 5817 5817 5818 5820 5819 5819 5819 5819 5819 5819 5816 5816 5817 5817 5817 5816 5815 5814 5815 5814 5811 5809 5810 5809 5807 5805 5804 5803 5800 5797
5760 5768 5774 5779 5784 5787 5791 5793 5796 5800 5803 5806 5808 5808 5808 5807 5808 5807 5809 5810 5811 5807 5811 5810 5808 5808 5808 5808 5806 5806 5805 5805 5804 5803 5802 5801 5801 5799 5798 5796 5795 5792 5790